[[{"header":{"parameterUnit":"m.s-1","parameterCategory":1,"la1":30.2991,"la2":30.254,"lo1":-89.0895,"lo2":-89.0444,"dy":0.0017,"dx":0.0017,"nx":28,"ny":28,"refTime":"2024-03-20T09:00:00:Z","depth":0,"parameterNumber":2,"parameterNumberName":"U-component_of_WINDS"},"data":[0,0,0,0,0,0,0,0,0,0,0,0,0,0,0,0,0,0,0,0,0,0,0,0,0,0,0,0,0,0,0,0,0,0,0,0,0,0,0,0,0,0,0,0,0,0,0,0,0,0,0,0,0,0,0,0,0,0,1.7193,1.7194,0,1.727,1.7271,1.7272,1.7177,1.7173,1.717,1.7166,1.7248,1.7254,1.7259,0,0,0,0,0,0,0,0,0,0,0,0,0,1.6967,1.6972,1.7193,1.7194,1.7195,1.727,1.7271,1.7272,1.7177,1.7173,1.7169,1.7165,1.7247,1.7253,1.726,0,0,0,0,0,0,0,0,0,0,0,0,0,1.7057,1.6973,1.7193,1.7157,1.7154,1.727,1.7271,1.7272,1.7178,1.7173,1.7168,1.7163,1.7245,1.7252,1.7261,1.7416,0,0,1.7286,1.7289,0,0,0,0,0,0,0,0,1.7052,1.7065,1.7161,1.716,1.7157,1.7208,1.7221,1.7321,1.7179,1.7169,1.7166,1.716,1.724,1.7248,1.7274,1.742,1.7424,1.7286,1.7291,1.7295,1.7297,0,0,0,0,0,0,0,1.7046,1.7062,1.7224,1.7163,1.716,1.7137,1.7144,1.724,1.7233,1.717,1.7163,1.7173,1.7237,1.7266,1.7275,1.7425,1.7286,1.7293,1.7298,1.7302,1.7703,1.7708,0,0,0,0,0,0,1.7043,1.7057,1.7221,1.7226,1.709,1.7146,1.7154,1.7197,1.7232,1.7232,1.7178,1.7168,1.7255,1.7266,1.7278,1.7463,1.7295,1.7302,1.7307,1.7697,1.7704,1.771,0,0,0,0,0,0,1.7039,1.7059,1.7218,1.714,1.7158,1.7155,1.7205,1.7202,1.723,1.7238,1.7236,1.7208,1.7251,1.7266,1.7382,1.7464,1.7306,1.7314,1.769,1.7699,1.7707,1.7834,0,0,0,0,0,0,1.7033,1.7058,1.7117,1.7142,1.7163,1.7321,1.721,1.7207,1.7244,1.7233,1.7266,1.7266,1.7248,1.7371,1.7391,1.7472,1.732,1.7683,1.7694,1.7704,1.7822,1.7846,1.7866,0,0,0,0,0,1.7025,1.715,1.712,1.7141,1.7236,1.7326,1.7338,1.7314,1.7251,1.7311,1.7315,1.7265,1.7452,1.7383,1.7405,1.7491,1.7678,1.7691,1.7704,1.7813,1.7841,1.7865,0,0,0,0,0,0,1.7137,1.7153,1.712,1.7256,1.7291,1.731,1.7384,1.7345,1.7398,1.7386,1.7354,1.7362,1.7486,1.75,1.7423,1.7643,1.7554,1.7572,1.763,1.7657,1.7678,1.7673,1.7327,0,0,0,0,0,1.7177,1.7248,1.7258,1.7378,1.7397,1.7388,1.7426,1.7404,1.7438,1.7453,1.7466,1.7502,1.7568,1.7613,1.7675,1.7823,1.7829,1.7893,1.7914,1.7932,1.7948,1.8028,1.8056,1.7753,1.7753,1.7752,0,0,1.7261,1.7279,1.7326,1.7401,1.7424,1.75,1.7401,1.7484,1.754,1.7466,1.7576,1.7587,1.7625,1.7758,1.7818,1.7774,1.8033,1.7949,1.7963,1.7969,1.8044,1.8073,1.8098,1.7762,1.776,1.7759,0,0,1.7453,1.7473,1.7575,1.7601,1.7637,1.763,1.7655,1.768,1.7684,1.7794,1.774,1.7806,1.7921,1.795,1.7981,1.8183,1.8139,1.8203,1.8317,1.8395,1.8419,1.844,1.8513,1.8539,1.8219,1.822,1.822,0,1.7554,1.7664,1.7633,1.772,1.7755,1.7689,1.7793,1.7819,1.7875,1.7901,1.785,1.7993,1.8014,1.8153,1.8202,1.8229,1.8256,1.82,1.8418,1.8439,1.8458,1.8527,1.8554,1.8227,1.8226,1.8226,1.8225,0,1.7786,1.7863,1.7941,1.7995,1.8038,1.8133,1.8117,1.8165,1.8139,1.8138,1.825,1.8273,1.8338,1.8369,1.8345,1.8505,1.8476,1.8423,1.8333,1.8495,1.8559,1.8585,1.8238,1.8236,1.8233,1.8231,0,0,1.8053,1.8087,1.8116,1.8139,1.8174,1.8234,1.8326,1.8388,1.843,1.847,1.8547,1.8645,1.8595,1.8629,1.8608,1.8676,1.8835,1.8613,1.8614,1.8655,1.9013,1.9054,1.9085,1.8805,1.881,1.8814,1.901,0,1.8246,1.8403,1.8378,1.8531,1.8602,1.854,1.862,1.8651,1.8652,1.8713,1.8714,1.8784,1.8713,1.8733,1.8797,1.8802,1.8907,1.8787,1.8878,1.8882,1.8871,1.9119,1.9163,1.9346,1.9035,1.9039,1.9042,0,1.8492,1.854,1.87,1.8723,1.8752,1.8824,1.8879,1.8938,1.8971,1.8967,1.9004,1.897,1.9062,1.897,1.9098,1.9017,1.9052,1.906,1.9066,1.9075,1.8973,1.9135,1.9404,1.9432,1.9081,1.9078,1.9075,0,1.8671,1.8776,1.8885,1.8907,1.8936,1.8989,1.9003,1.9031,1.907,1.9118,1.9143,1.9202,1.9234,1.9281,1.9263,1.9198,1.9394,1.9301,1.9394,1.9395,1.944,1.9437,1.972,1.9461,1.9461,1.946,1.946,0,1.889,1.8991,1.8966,1.9033,1.9144,1.9113,1.9224,1.9232,1.9257,1.9325,1.9275,1.9341,1.9313,1.9377,1.9363,1.9471,1.9486,1.9486,1.9482,1.9491,1.9491,1.9515,1.9502,1.9467,1.9466,1.9464,1.9463,0,1.911,1.9097,1.9212,1.923,1.9236,1.9318,1.9333,1.9397,1.9392,1.948,1.9498,1.9493,1.9565,1.9552,1.9632,1.9623,1.9758,1.9737,1.9747,1.9742,1.9837,1.9829,2.0145,2.0185,1.99,1.9903,1.9905,0,1.9251,1.9327,1.9352,1.9394,1.9412,1.948,1.9518,1.9491,1.9533,1.9576,1.9635,1.9702,1.9755,1.9874,1.9878,1.9939,1.992,2.0026,1.9929,1.9936,1.9922,1.9918,1.9926,2.0046,2.0049,2.0052,2.0054,0,1.9504,1.9493,1.955,1.9605,1.9653,1.9695,1.9733,1.977,1.9745,1.9796,1.9868,1.9909,1.999,2.0058,2.0114,2.013,2.009,2.0084,2.011,2.0121,2.0123,2.0124,1.9801,2.0078,2.0075,2.0074,2.0072,2.0072,1.9689,1.9753,1.9781,1.9846,1.9871,1.9907,1.9967,1.997,2.003,2.0092,2.0072,2.0155,2.0186,2.0257,2.028,2.0345,2.0305,2.0341,2.0351,2.036,2.0372,2.0112,2.0355,2.0354,2.0353,2.0353,2.0352,0,1.9939,1.9953,2.0013,2.0067,2.0118,2.0072,2.0112,2.0158,2.0231,2.0263,2.0315,2.0398,2.0463,2.0472,2.0534,2.0584,2.0567,2.0601,2.0598,2.0602,2.0404,2.0376,2.0614,2.0614,2.0614,2.0614,2.0614,2.0614,2.0076,2.0182,2.0174,2.0292,2.0306,2.0385,2.0412,2.0445,2.047,2.0564,2.0618,2.0622,2.0645,2.0707,2.0765,2.0766,2.0792,2.0834,2.0828,2.0642,2.0616,2.0592,2.0565,2.084,2.084,2.1021,2.1023,2.1024]},{"header":{"parameterUnit":"m.s-1","parameterCategory":1,"la1":30.2991,"la2":30.254,"lo1":-89.0895,"lo2":-89.0444,"dy":0.0017,"dx":0.0017,"nx":28,"ny":28,"refTime":"2024-03-20T09:00:00:Z","depth":0,"parameterNumber":3,"parameterNumberName":"V-component_of_WINDS"},"data":[0,0,0,0,0,0,0,0,0,0,0,0,0,0,0,0,0,0,0,0,0,0,0,0,0,0,0,0,0,0,0,0,0,0,0,0,0,0,0,0,0,0,0,0,0,0,0,0,0,0,0,0,0,0,0,0,0,0,-1.0772,-1.0773,0,-1.0846,-1.0847,-1.0848,-1.0908,-1.0909,-1.0909,-1.091,-1.0985,-1.0987,-1.0988,0,0,0,0,0,0,0,0,0,0,0,0,0,-1.0684,-1.0685,-1.0772,-1.0773,-1.0774,-1.0846,-1.0847,-1.0848,-1.0908,-1.0909,-1.0909,-1.091,-1.0985,-1.0987,-1.0988,0,0,0,0,0,0,0,0,0,0,0,0,0,-1.0736,-1.0685,-1.0772,-1.0813,-1.0817,-1.0846,-1.0847,-1.0848,-1.0908,-1.0909,-1.091,-1.091,-1.0984,-1.0986,-1.0989,-1.0983,0,0,-1.0995,-1.0996,0,0,0,0,0,0,0,0,-1.0733,-1.0739,-1.0806,-1.081,-1.0815,-1.0869,-1.0844,-1.0894,-1.0907,-1.0873,-1.091,-1.0911,-1.0946,-1.0951,-1.0963,-1.0987,-1.099,-1.0995,-1.0997,-1.0998,-1.0998,0,0,0,0,0,0,0,-1.073,-1.0737,-1.0802,-1.0807,-1.0812,-1.0827,-1.0836,-1.0853,-1.0903,-1.0876,-1.0881,-1.0889,-1.0949,-1.0961,-1.0965,-1.0991,-1.0995,-1.0997,-1.0999,-1.0999,-1.1015,-1.1014,0,0,0,0,0,0,-1.072,-1.0733,-1.0799,-1.0804,-1.0776,-1.0828,-1.0838,-1.0851,-1.0903,-1.0912,-1.0888,-1.0891,-1.0957,-1.0963,-1.0968,-1.0965,-1.0998,-1.1,-1.1001,-1.1016,-1.1015,-1.1014,0,0,0,0,0,0,-1.0717,-1.0725,-1.0796,-1.077,-1.078,-1.0829,-1.0843,-1.0852,-1.0864,-1.0912,-1.0921,-1.0891,-1.0958,-1.0965,-1.0979,-1.0969,-1.1001,-1.1003,-1.1017,-1.1015,-1.1014,-1.0959,0,0,0,0,0,0,-1.0715,-1.0724,-1.0722,-1.0769,-1.0781,-1.0806,-1.0842,-1.0852,-1.0867,-1.0873,-1.0918,-1.0926,-1.0959,-1.0976,-1.0981,-1.0972,-1.1004,-1.1018,-1.1016,-1.1015,-1.0962,-1.0956,-1.0951,0,0,0,0,0,-1.0711,-1.0703,-1.0721,-1.0729,-1.078,-1.0805,-1.0812,-1.085,-1.0866,-1.0865,-1.0896,-1.0925,-1.0969,-1.0977,-1.0983,-1.0975,-1.1019,-1.1017,-1.1015,-1.0965,-1.0958,-1.0951,0,0,0,0,0,0,-1.0653,-1.071,-1.0731,-1.0738,-1.0766,-1.0815,-1.0814,-1.0841,-1.0864,-1.0868,-1.0915,-1.0924,-1.0933,-1.0956,-1.0963,-1.0973,-1.0998,-1.0997,-1.0957,-1.0951,-1.0946,-1.0939,-1.1006,0,0,0,0,0,-1.0641,-1.0657,-1.0706,-1.0708,-1.0721,-1.0765,-1.0777,-1.0804,-1.0835,-1.0847,-1.0879,-1.0908,-1.0929,-1.0942,-1.0963,-1.0967,-1.0977,-1.0964,-1.0959,-1.0954,-1.0952,-1.0956,-1.0951,-1.1007,-1.1007,-1.1007,0,0,-1.0617,-1.065,-1.0657,-1.0697,-1.0722,-1.0737,-1.0774,-1.0789,-1.08,-1.0849,-1.0864,-1.0889,-1.0925,-1.0933,-1.0939,-1.0952,-1.094,-1.0951,-1.0947,-1.0948,-1.0954,-1.0948,-1.0943,-1.1006,-1.1006,-1.1006,0,0,-1.0579,-1.0606,-1.0611,-1.0635,-1.0672,-1.0702,-1.0703,-1.0748,-1.0766,-1.0782,-1.082,-1.0834,-1.0869,-1.0893,-1.0909,-1.0882,-1.0909,-1.0888,-1.0859,-1.0862,-1.0857,-1.0854,-1.0844,-1.084,-1.0887,-1.0887,-1.0887,0,-1.0544,-1.0568,-1.0609,-1.0621,-1.0638,-1.0684,-1.0689,-1.071,-1.0753,-1.0763,-1.0778,-1.0823,-1.085,-1.0865,-1.0858,-1.087,-1.0873,-1.0883,-1.0855,-1.0851,-1.0849,-1.0839,-1.0836,-1.0884,-1.0884,-1.0884,-1.0885,0,-1.0522,-1.0538,-1.0538,-1.0577,-1.0594,-1.0602,-1.0645,-1.0658,-1.0684,-1.0712,-1.0728,-1.0762,-1.0792,-1.0798,-1.0823,-1.0816,-1.0824,-1.0846,-1.0872,-1.084,-1.0832,-1.0829,-1.088,-1.0881,-1.0882,-1.0882,0,0,-1.0449,-1.0513,-1.0511,-1.053,-1.0575,-1.0589,-1.06,-1.0629,-1.0638,-1.0666,-1.0676,-1.0705,-1.0726,-1.0745,-1.0774,-1.0777,-1.0753,-1.0799,-1.0801,-1.0789,-1.0747,-1.0729,-1.0725,-1.0772,-1.0771,-1.0771,-1.0744,0,-1.0418,-1.0439,-1.0478,-1.0487,-1.0502,-1.0547,-1.0557,-1.0585,-1.0612,-1.063,-1.066,-1.0679,-1.0706,-1.0718,-1.0723,-1.0754,-1.0745,-1.0757,-1.0781,-1.0782,-1.077,-1.0721,-1.0702,-1.0675,-1.0742,-1.0741,-1.0741,0,-1.0384,-1.041,-1.0421,-1.0465,-1.0473,-1.0481,-1.0511,-1.0527,-1.0561,-1.0581,-1.0602,-1.0634,-1.0648,-1.0672,-1.0693,-1.07,-1.0713,-1.073,-1.073,-1.0733,-1.0758,-1.0721,-1.0667,-1.0663,-1.0737,-1.0737,-1.0737,0,-1.0329,-1.0366,-1.0378,-1.0392,-1.0445,-1.0449,-1.0471,-1.0507,-1.0522,-1.0548,-1.0559,-1.0587,-1.0602,-1.0623,-1.0661,-1.0675,-1.0677,-1.0705,-1.0694,-1.0693,-1.0691,-1.069,-1.0637,-1.0701,-1.0701,-1.0701,-1.0701,0,-1.029,-1.0294,-1.0353,-1.036,-1.0367,-1.0411,-1.0417,-1.0443,-1.0474,-1.0487,-1.0528,-1.0539,-1.059,-1.0608,-1.0638,-1.065,-1.0657,-1.0673,-1.0681,-1.0669,-1.0667,-1.0677,-1.0679,-1.07,-1.07,-1.07,-1.07,0,-1.0228,-1.0268,-1.0283,-1.0332,-1.0344,-1.0347,-1.0389,-1.0398,-1.0428,-1.0444,-1.045,-1.0497,-1.052,-1.0561,-1.0595,-1.0616,-1.0622,-1.0636,-1.061,-1.0614,-1.0601,-1.0601,-1.0551,-1.0547,-1.0613,-1.0613,-1.0612,0,-1.02,-1.0204,-1.0254,-1.0266,-1.0286,-1.0304,-1.032,-1.0365,-1.038,-1.042,-1.0423,-1.0449,-1.0472,-1.0507,-1.0544,-1.0571,-1.0586,-1.0567,-1.059,-1.0578,-1.0585,-1.0583,-1.0584,-1.0561,-1.056,-1.0559,-1.0558,0,-1.0145,-1.0165,-1.0186,-1.0214,-1.0232,-1.0257,-1.0283,-1.0291,-1.0342,-1.0356,-1.038,-1.0398,-1.0434,-1.0459,-1.0491,-1.0515,-1.0545,-1.0551,-1.055,-1.0537,-1.0521,-1.0529,-1.0594,-1.0551,-1.0552,-1.0553,-1.0553,-1.0553,-1.0099,-1.0105,-1.0141,-1.0164,-1.0189,-1.0213,-1.0223,-1.0255,-1.0275,-1.0308,-1.0333,-1.0355,-1.039,-1.0437,-1.0459,-1.0477,-1.0491,-1.0489,-1.0488,-1.0487,-1.0482,-1.0519,-1.0483,-1.0483,-1.0483,-1.0484,-1.0484,0,-1.0046,-1.0071,-1.0092,-1.0128,-1.0146,-1.0173,-1.0204,-1.0217,-1.0236,-1.0266,-1.0288,-1.0316,-1.0341,-1.0381,-1.041,-1.0416,-1.0431,-1.0422,-1.0422,-1.0427,-1.0468,-1.0466,-1.041,-1.041,-1.041,-1.041,-1.041,-1.041,-1.002,-1.0032,-1.0056,-1.0081,-1.0107,-1.0129,-1.0144,-1.0167,-1.0191,-1.022,-1.0241,-1.0267,-1.0302,-1.0333,-1.0358,-1.0369,-1.0377,-1.0364,-1.0379,-1.0417,-1.0424,-1.043,-1.0428,-1.0366,-1.0366,-1.0337,-1.0337,-1.0336]}]]